LNK1254 FACT-FAPE

Flight info

Callsign LNK1254
Flight time 0h 51m
Altitude 33000
Route OKTED1B OKTED UQ12 XUGOL UQ56 OKSET DCT PEV DCT
Aircraft E195/M-SDE3GILORVW/S

Departure

Time 2026-04-26 20:43
Airport Cape Town International Airport (FACT)

Arrival

Time 2026-04-26 21:35
Airport Chief Dawid Stuurman International Airport (FAPE)
Time Latitude Longitude Altitude Speed Heading
2026-04-26 20:22 -33.97070 18.59855 150 ft 0 kts 255°
2026-04-26 20:34 -33.97069 18.59861 150 ft 3 kts 255°
2026-04-26 20:34 -33.97064 18.59881 150 ft 3 kts 255°
2026-04-26 20:34 -33.97060 18.59898 150 ft 3 kts 255°
2026-04-26 20:34 -33.97055 18.59923 150 ft 3 kts 269°
2026-04-26 20:35 -33.97063 18.59945 150 ft 3 kts 331°
2026-04-26 20:35 -33.97070 18.59949 150 ft 0 kts 342°
2026-04-26 20:38 -33.97064 18.59947 150 ft 3 kts 343°
2026-04-26 20:38 -33.97027 18.59936 150 ft 9 kts 346°
2026-04-26 20:38 -33.96947 18.59912 150 ft 15 kts 345°
2026-04-26 20:38 -33.96822 18.59872 150 ft 22 kts 345°
2026-04-26 20:39 -33.96664 18.59821 150 ft 23 kts 345°
2026-04-26 20:39 -33.96508 18.59779 150 ft 23 kts 349°
2026-04-26 20:39 -33.96352 18.59745 150 ft 22 kts 349°
2026-04-26 20:39 -33.96240 18.59728 150 ft 8 kts
2026-04-26 20:40 -33.96187 18.59767 150 ft 10 kts 41°
2026-04-26 20:40 -33.96135 18.59831 149 ft 11 kts 44°
2026-04-26 20:40 -33.96079 18.59899 150 ft 12 kts 45°
2026-04-26 20:40 -33.96035 18.59987 149 ft 13 kts 88°
2026-04-26 20:41 -33.96062 18.60025 149 ft 0 kts 166°
2026-04-26 20:42 -33.96065 18.60026 150 ft 4 kts 165°
2026-04-26 20:43 -33.96308 18.60104 149 ft 69 kts 165°
2026-04-26 20:43 -33.96959 18.60310 153 ft 126 kts 166°
2026-04-26 20:43 -33.97967 18.60627 294 ft 164 kts 166°
2026-04-26 20:43 -33.99072 18.60976 1030 ft 166 kts 169°
2026-04-26 20:44 -34.00274 18.61461 1213 ft 199 kts 165°
2026-04-26 20:44 -34.01650 18.62076 1531 ft 220 kts 164°
2026-04-26 20:44 -34.03087 18.62722 2366 ft 221 kts 165°
2026-04-26 20:44 -34.04554 18.63382 3119 ft 225 kts 164°
2026-04-26 20:45 -34.06096 18.64073 3464 ft 253 kts 165°
2026-04-26 20:45 -34.07763 18.64844 4198 ft 260 kts 160°
2026-04-26 20:45 -34.09267 18.66118 4996 ft 270 kts 143°
2026-04-26 20:45 -34.10446 18.67944 5719 ft 282 kts 117°
2026-04-26 20:46 -34.10955 18.70226 6413 ft 291 kts 102°
2026-04-26 20:46 -34.11214 18.72652 7073 ft 294 kts 98°
2026-04-26 20:46 -34.11438 18.75126 7675 ft 296 kts 99°
2026-04-26 20:46 -34.11689 18.77618 8234 ft 302 kts 99°
2026-04-26 20:47 -34.11978 18.80148 8834 ft 306 kts 101°
2026-04-26 20:47 -34.12186 18.81838 9230 ft 308 kts 101°
2026-04-26 20:47 -34.12635 18.85300 10023 ft 314 kts 101°
2026-04-26 20:47 -34.12984 18.87911 10343 ft 329 kts 101°
2026-04-26 20:48 -34.13354 18.90710 10659 ft 341 kts 101°
2026-04-26 20:48 -34.13723 18.93556 11311 ft 344 kts 101°
2026-04-26 20:48 -34.14100 18.96426 11915 ft 349 kts 101°
2026-04-26 20:48 -34.14484 18.99341 12531 ft 353 kts 101°
2026-04-26 20:49 -34.14876 19.02286 13171 ft 357 kts 100°
2026-04-26 20:49 -34.15274 19.05266 13789 ft 362 kts 100°
2026-04-26 20:49 -34.15673 19.08283 14353 ft 367 kts 100°
2026-04-26 20:49 -34.16078 19.11357 14899 ft 373 kts 100°
2026-04-26 20:50 -34.16491 19.14500 15349 ft 384 kts 99°
2026-04-26 20:50 -34.16911 19.17709 15918 ft 391 kts 99°
2026-04-26 20:50 -34.17334 19.20935 16474 ft 398 kts 99°
2026-04-26 20:50 -34.17393 19.21385 16531 ft 399 kts 99°
2026-04-26 20:51 -34.17762 19.24266 17052 ft 405 kts 99°
2026-04-26 20:51 -34.17968 19.25910 17316 ft 409 kts 99°
2026-04-26 20:51 -34.18398 19.29341 17874 ft 417 kts 99°
2026-04-26 20:51 -34.18837 19.32825 18455 ft 424 kts 99°
2026-04-26 20:52 -34.19282 19.36342 19317 ft 412 kts 99°
2026-04-26 20:52 -34.19719 19.39791 19799 ft 424 kts 99°
2026-04-26 20:52 -34.20172 19.43330 20298 ft 430 kts 99°
2026-04-26 20:52 -34.20634 19.46929 20706 ft 439 kts 98°
2026-04-26 20:53 -34.21109 19.50612 21062 ft 447 kts 98°
2026-04-26 20:53 -34.21579 19.54289 21482 ft 453 kts 97°
2026-04-26 20:53 -34.21805 19.58116 21913 ft 457 kts 88°
2026-04-26 20:53 -34.21672 19.61975 22353 ft 461 kts 81°
2026-04-26 20:54 -34.21360 19.65824 22791 ft 466 kts 79°
2026-04-26 20:54 -34.20996 19.69698 23224 ft 471 kts 78°
2026-04-26 20:54 -34.20633 19.73657 23661 ft 477 kts 79°
2026-04-26 20:54 -34.20307 19.77683 24056 ft 481 kts 80°
2026-04-26 20:55 -34.20022 19.81739 24353 ft 489 kts 81°
2026-04-26 20:55 -34.19764 19.85828 24772 ft 492 kts 81°
2026-04-26 20:55 -34.19514 19.89989 25144 ft 497 kts 82°
2026-04-26 20:55 -34.19259 19.94141 25542 ft 500 kts 81°
2026-04-26 20:56 -34.18991 19.98310 25947 ft 503 kts 81°
2026-04-26 20:56 -34.18703 20.02587 26315 ft 507 kts 81°
2026-04-26 20:56 -34.18410 20.06797 26680 ft 511 kts 81°
2026-04-26 20:56 -34.18105 20.11111 27043 ft 514 kts 81°
2026-04-26 20:57 -34.17800 20.15439 27338 ft 519 kts 81°
2026-04-26 20:57 -34.17536 20.19795 27674 ft 523 kts 84°
2026-04-26 20:57 -34.17560 20.24223 27982 ft 530 kts 90°
2026-04-26 20:57 -34.17790 20.28679 28318 ft 534 kts 92°
2026-04-26 20:58 -34.18042 20.33166 28634 ft 537 kts 91°
2026-04-26 20:58 -34.18253 20.37667 28955 ft 539 kts 90°
2026-04-26 20:58 -34.18423 20.42218 29248 ft 542 kts 90°
2026-04-26 20:58 -34.18562 20.46776 29536 ft 545 kts 89°
2026-04-26 20:59 -34.18685 20.51354 29772 ft 547 kts 89°
2026-04-26 20:59 -34.18800 20.55963 30027 ft 550 kts 89°
2026-04-26 20:59 -34.18911 20.60605 30278 ft 552 kts 89°
2026-04-26 20:59 -34.19064 20.67176 30635 ft 554 kts 89°
2026-04-26 21:00 -34.19471 20.85649 31638 ft 560 kts 88°
2026-04-26 21:00 -34.19692 20.95829 32135 ft 563 kts 88°
2026-04-26 21:00 -34.19791 21.00567 32354 ft 564 kts 88°
2026-04-26 21:00 -34.19886 21.05299 32641 ft 563 kts 88°
2026-04-26 21:01 -34.19976 21.10041 32912 ft 563 kts 88°
2026-04-26 21:01 -34.20151 21.19570 33040 ft 572 kts 88°
2026-04-26 21:02 -34.20333 21.29291 33073 ft 584 kts 88°
2026-04-26 21:02 -34.20516 21.39120 33072 ft 590 kts 88°
2026-04-26 21:03 -34.20690 21.49045 33047 ft 590 kts 88°
2026-04-26 21:03 -34.20848 21.58955 33039 ft 590 kts 88°
2026-04-26 21:04 -34.21030 21.72470 33028 ft 589 kts 88°
2026-04-26 21:04 -34.21537 22.12154 33018 ft 589 kts 87°
2026-04-26 21:05 -34.21914 22.51768 33016 ft 588 kts 87°
2026-04-26 21:05 -34.22166 22.91057 33004 ft 588 kts 86°
2026-04-26 21:06 -34.22301 23.30504 32987 ft 587 kts 86°
2026-04-26 21:06 -34.22308 23.69518 32943 ft 586 kts 86°
2026-04-26 21:06 -34.22302 23.74375 32485 ft 574 kts 85°
2026-04-26 21:07 -34.22286 23.79263 31142 ft 587 kts 86°
2026-04-26 21:07 -34.22279 23.84164 30489 ft 581 kts 86°
2026-04-26 21:07 -34.22277 23.89041 29606 ft 580 kts 86°
2026-04-26 21:07 -34.22279 23.93876 28878 ft 572 kts 85°
2026-04-26 21:08 -34.22278 23.98664 28125 ft 567 kts 85°
2026-04-26 21:08 -34.22283 24.01701 27619 ft 564 kts 86°
2026-04-26 21:08 -34.22315 24.06397 26869 ft 548 kts 86°
2026-04-26 21:08 -34.22344 24.10901 26195 ft 524 kts 85°
2026-04-26 21:09 -34.22332 24.15230 25476 ft 506 kts 84°
2026-04-26 21:09 -34.22289 24.19386 24885 ft 498 kts 83°
2026-04-26 21:09 -34.22239 24.23589 24173 ft 499 kts 83°
2026-04-26 21:09 -34.22201 24.27785 23507 ft 499 kts 83°
2026-04-26 21:10 -34.22177 24.31978 22831 ft 496 kts 83°
2026-04-26 21:10 -34.22162 24.36128 22161 ft 492 kts 83°
2026-04-26 21:10 -34.22147 24.40255 21485 ft 489 kts 83°
2026-04-26 21:10 -34.22131 24.44336 20892 ft 483 kts 83°
2026-04-26 21:11 -34.22117 24.48386 20243 ft 479 kts 82°
2026-04-26 21:11 -34.22102 24.52342 19614 ft 475 kts 82°
2026-04-26 21:11 -34.22082 24.56310 18991 ft 471 kts 82°
2026-04-26 21:11 -34.22056 24.60249 18373 ft 466 kts 82°
2026-04-26 21:12 -34.22001 24.64142 17719 ft 457 kts 78°
2026-04-26 21:12 -34.21503 24.67772 17140 ft 418 kts 61°
2026-04-26 21:12 -34.20461 24.70918 16659 ft 393 kts 55°
2026-04-26 21:12 -34.19392 24.73914 16135 ft 385 kts 57°
2026-04-26 21:13 -34.18473 24.76918 15642 ft 386 kts 62°
2026-04-26 21:13 -34.17663 24.80054 15112 ft 386 kts 65°
2026-04-26 21:13 -34.17029 24.83167 14597 ft 389 kts 76°
2026-04-26 21:13 -34.17017 24.86450 14120 ft 392 kts 90°
2026-04-26 21:14 -34.17170 24.88371 13852 ft 391 kts 92°
2026-04-26 21:14 -34.17278 24.89547 13644 ft 392 kts 92°
2026-04-26 21:14 -34.17596 24.92797 13153 ft 386 kts 93°
2026-04-26 21:14 -34.17914 24.96021 12694 ft 386 kts 93°
2026-04-26 21:15 -34.18224 24.99231 12220 ft 384 kts 93°
2026-04-26 21:15 -34.18525 25.02423 11720 ft 381 kts 92°
2026-04-26 21:15 -34.18827 25.05572 11279 ft 374 kts 92°
2026-04-26 21:15 -34.19037 25.08666 10803 ft 362 kts 84°
2026-04-26 21:16 -34.18817 25.11631 10378 ft 348 kts 76°
2026-04-26 21:16 -34.18474 25.14457 9893 ft 340 kts 75°
2026-04-26 21:16 -34.18115 25.17248 9454 ft 331 kts 75°
2026-04-26 21:16 -34.17723 25.19946 9036 ft 320 kts 69°
2026-04-26 21:17 -34.16889 25.22331 8606 ft 301 kts 50°
2026-04-26 21:17 -34.15750 25.24407 8278 ft 295 kts 47°
2026-04-26 21:17 -34.14596 25.26470 7883 ft 297 kts 50°
2026-04-26 21:17 -34.13504 25.28594 7510 ft 298 kts 54°
2026-04-26 21:18 -34.12844 25.30051 7245 ft 298 kts 56°
2026-04-26 21:18 -34.11634 25.33014 6726 ft 296 kts 58°
2026-04-26 21:18 -34.10745 25.35245 6354 ft 294 kts 58°
2026-04-26 21:18 -34.09853 25.37461 6042 ft 294 kts 59°
2026-04-26 21:19 -34.08955 25.39664 5613 ft 289 kts 59°
2026-04-26 21:19 -34.08359 25.41085 5374 ft 284 kts 59°
2026-04-26 21:19 -34.07470 25.43181 5023 ft 278 kts 58°
2026-04-26 21:19 -34.06588 25.45227 4652 ft 273 kts 59°
2026-04-26 21:20 -34.05936 25.46693 4402 ft 269 kts 59°
2026-04-26 21:20 -34.05414 25.47841 4218 ft 266 kts 57°
2026-04-26 21:20 -34.04507 25.49766 3920 ft 259 kts 53°
2026-04-26 21:20 -34.03516 25.51482 3919 ft 244 kts 50°
2026-04-26 21:21 -34.02548 25.53189 3902 ft 250 kts 54°
2026-04-26 21:21 -34.01637 25.54976 3906 ft 250 kts 55°
2026-04-26 21:21 -34.00728 25.56751 3914 ft 251 kts 55°
2026-04-26 21:21 -33.99809 25.58563 3933 ft 254 kts 55°
2026-04-26 21:22 -33.98900 25.60356 3935 ft 252 kts 55°
2026-04-26 21:22 -33.97981 25.62145 3927 ft 251 kts 55°
2026-04-26 21:22 -33.97061 25.63947 3853 ft 258 kts 55°
2026-04-26 21:23 -33.95183 25.67563 3677 ft 246 kts 55°
2026-04-26 21:23 -33.94501 25.69473 3651 ft 252 kts 80°
2026-04-26 21:23 -33.94613 25.71536 3651 ft 246 kts 114°
2026-04-26 21:23 -33.95531 25.73178 3667 ft 233 kts 147°
2026-04-26 21:24 -33.96951 25.73941 3698 ft 220 kts 181°
2026-04-26 21:24 -33.98382 25.73651 3689 ft 207 kts 215°
2026-04-26 21:24 -33.99345 25.72465 3680 ft 196 kts 250°
2026-04-26 21:24 -33.99534 25.70861 3695 ft 196 kts 271°
2026-04-26 21:25 -33.99471 25.69219 3687 ft 197 kts 271°
2026-04-26 21:25 -33.99413 25.67595 3675 ft 192 kts 271°
2026-04-26 21:25 -33.99360 25.65994 3679 ft 191 kts 271°
2026-04-26 21:25 -33.99346 25.64376 3680 ft 195 kts 268°
2026-04-26 21:26 -33.99411 25.62746 3674 ft 192 kts 259°
2026-04-26 21:26 -34.00054 25.61392 3648 ft 195 kts 220°
2026-04-26 21:26 -34.01408 25.60946 3675 ft 217 kts 181°
2026-04-26 21:26 -34.02825 25.61754 3694 ft 240 kts 140°
2026-04-26 21:27 -34.03611 25.63582 3676 ft 253 kts 99°
2026-04-26 21:27 -34.03347 25.65638 3695 ft 249 kts 60°
2026-04-26 21:27 -34.02444 25.67430 3504 ft 253 kts 54°
2026-04-26 21:27 -34.01488 25.69162 3346 ft 251 kts 53°
2026-04-26 21:28 -34.00483 25.70928 3052 ft 253 kts 52°
2026-04-26 21:28 -33.99490 25.72663 2818 ft 250 kts 53°
2026-04-26 21:28 -33.98519 25.74351 2525 ft 248 kts 52°
2026-04-26 21:28 -33.97556 25.76026 2386 ft 238 kts 52°
2026-04-26 21:29 -33.96610 25.77663 2376 ft 240 kts 52°
2026-04-26 21:29 -33.95670 25.79306 2452 ft 232 kts 53°
2026-04-26 21:29 -33.94783 25.80870 2477 ft 221 kts 53°
2026-04-26 21:29 -33.93709 25.82080 2414 ft 206 kts 15°
2026-04-26 21:30 -33.92387 25.82140 2365 ft 184 kts 326°
2026-04-26 21:30 -33.91608 25.81114 2362 ft 160 kts 276°
2026-04-26 21:30 -33.91575 25.79809 2388 ft 157 kts 266°
2026-04-26 21:30 -33.91542 25.78492 2394 ft 157 kts 265°
2026-04-26 21:31 -33.91628 25.77189 2395 ft 158 kts 262°
2026-04-26 21:31 -33.91679 25.75837 2409 ft 163 kts 265°
2026-04-26 21:31 -33.91833 25.74529 2383 ft 159 kts 240°
2026-04-26 21:31 -33.92471 25.73445 2384 ft 160 kts 233°
2026-04-26 21:32 -33.93054 25.72354 2199 ft 150 kts 243°
2026-04-26 21:32 -33.93531 25.71310 2000 ft 135 kts 241°
2026-04-26 21:32 -33.94024 25.70388 1827 ft 130 kts 239°
2026-04-26 21:32 -33.94510 25.69469 1675 ft 130 kts 239°
2026-04-26 21:33 -33.94981 25.68534 1477 ft 131 kts 240°
2026-04-26 21:33 -33.95466 25.67589 1310 ft 133 kts 240°
2026-04-26 21:33 -33.95962 25.66633 1132 ft 136 kts 240°
2026-04-26 21:33 -33.96464 25.65670 941 ft 137 kts 238°
2026-04-26 21:34 -33.96952 25.64727 752 ft 130 kts 239°
2026-04-26 21:34 -33.97427 25.63799 625 ft 131 kts 240°
2026-04-26 21:34 -33.97900 25.62826 388 ft 132 kts 238°
2026-04-26 21:34 -33.98400 25.61892 264 ft 138 kts 236°
2026-04-26 21:35 -33.98862 25.61001 202 ft 96 kts 238°
2026-04-26 21:35 -33.99104 25.60534 205 ft 40 kts 238°
2026-04-26 21:35 -33.99210 25.60329 199 ft 26 kts 238°
2026-04-26 21:35 -33.99231 25.60287 202 ft 13 kts 237°
2026-04-26 21:36 -33.99238 25.60276 198 ft 0 kts 237°